CAPE
3 3 7 1 6 6 3 3 2 0 0 0 0 0 0 0 0 0 0 0 0 0 0 0 0 0 0 0 0 0 0 0 0 0 0 0 0 0 0 0 0 0 0 0 0
5 5 4 6 8 8 7 6 2 2 0 0 0 0 0 0 0 0 0 0 0 0 0 0 0 0 0 0 2 13 0 0 0 0 0 0 0 0 0 0 0 0 0 0 0
3 6 8 8 7 3 5 5 7 4 3 2 0 0 0 0 0 0 0 0 0 0 0 0 0 0 0 0 0 0 0 0 0 0 0 0 0 0 0 0 0 0 0 0 0
1 2 3 2 2 2 2 3 2 2 4 2 0 0 0 0 0 0 0 0 0 0 0 0 0 0 0 0 0 0 0 0 0 0 0 0 0 0 0 0 0 0 0 0 0
6 1 0 0 0 0 0 0 0 0 0 0 1 2 0 0 0 0 0 0 0 0 0 0 0 0 0 0 0 0 0 0 0 0 0 0 0 0 0 0 0 0 0 0 0
4 3 1 1 0 0 0 0 0 0 0 0 1 8 3 0 0 0 0 0 0 0 0 0 0 0 0 0 0 0 0 0 0 0 0 0 0 0 0 0 0 0 0 0 0
0 0 0 0 0 0 0 0 0 0 0 0 3 9 3 0 0 0 0 0 0 0 0 0 0 0 0 0 0 0 0 0 0 0 0 0 0 0 0 0 0 0 0 0 0
1 0 0 0 0 0 0 0 0 0 0 0 3 6 0 0 0 0 0 0 0 0 0 0 0 0 0 0 0 0 0 0 0 0 0 0 0 0 0 0 0 0 0 0 0
1 0 1 0 0 0 0 0 0 0 0 0 0 0 0 0 0 0 0 0 0 0 0 0 0 0 0 0 0 0 0 0 0 0 0 0 0 0 0 0 0 0 0 0 0
1 0 0 0 0 0 0 0 0 0 0 0 0 5 0 0 0 0 0 0 0 0 0 0 0 0 0 0 0 0 0 0 0 0 0 0 0 0 0 0 0 0 0 0 0
0 0 0 1 0 0 0 0 0 0 6 1 0 2 0 0 0 0 0 0 0 0 0 0 0 0 0 0 0 0 0 0 0 0 0 0 0 0 0 0 0 0 0 0 0
0 0 0 0 0 0 0 0 1 0 0 0 0 0 0 0 0 0 0 0 0 0 0 0 0 0 0 0 0 0 0 0 0 0 0 0 0 0 0 0 0 0 0 0 0
0 0 0 0 0 0 0 0 0 0 0 0 0 0 0 0 0 0 0 0 0 0 0 0 0 0 0 0 0 0 0 0 0 0 0 0 0 0 0 0 0 0 0 0 0
0 0 0 0 0 0 0 0 2 5 0 0 35 0 0 0 0 0 0 0 0 0 0 0 0 0 0 0 0 0 0 0 0 0 0 0 0 0 0 0 0 0 0 0 0
0 0 0 0 0 0 0 0 0 7 0 0 0 13 0 1 0 0 0 0 0 0 0 0 0 0 0 0 0 0 0 0 0 0 0 0 0 0 0 0 0 0 0 0 0
0 0 0 0 0 0 0 0 0 0 0 0 0 0 0 0 0 0 0 1 1 0 0 0 0 0 0 0 0 0 0 0 0 0 0 0 0 0 0 0 0 0 0 0 0
0 0 0 0 0 0 0 0 0 0 2 6 2 7 17 3 5 0 0 1 17 45 0 3 5 0 0 0 0 0 0 0 0 0 0 0 0 0 0 0 0 0 0 8 26
0 0 0 0 0 0 0 0 0 4 7 0 0 13 17 0 0 0 0 0 7 41 0 1 0 0 0 0 0 0 0 0 0 0 0 0 0 0 0 0 0 0 0 154 206
0 0 0 0 0 0 0 0 1 5 12 18 0 0 0 0 0 0 0 28 29 28 11 18 0 0 0 0 0 0 0 0 0 0 0 0 0 0 0 0 0 0 1 283 431
0 0 0 0 0 0 0 0 26 3 9 1 23 13 0 0 0 7 0 69 48 27 23 0 0 0 0 0 0 0 0 0 0 0 0 0 0 0 0 0 0 0 50 388 504
0 0 0 0 0 0 0 0 2 0 23 32 57 23 9 13 13 2 12 42 0 0 0 5 1 0 0 0 0 0 0 0 0 0 0 0 0 0 0 0 0 0 145 373 500
0 1 0 0 0 1 0 0 10 12 84 103 91 10 14 0 9 0 0 4 0 0 0 0 1 0 0 0 0 0 0 0 0 0 0 0 0 0 0 0 2 23 340 513 553
0 2 3 0 0 0 3 0 8 45 33 32 19 47 0 0 3 12 1 29 0 0 3 3 1 0 0 0 2 3 0 0 0 0 0 0 0 0 0 42 293 498 583 609 560
0 1 0 0 0 0 0 0 0 27 1 1 0 1 0 0 1 3 6 13 0 0 11 0 0 0 0 0 0 1 0 0 0 0 0 0 0 0 0 84 458 578 612 574 549
1 0 1 0 0 0 4 2 2 5 42 21 2 1 11 0 0 0 7 8 16 5 4 0 0 0 0 0 0 1 0 0 0 0 0 0 0 0 143 161 558 638 574 491 497
4 8 1 0 0 0 7 2 3 8 8 5 1 0 15 0 12 0 1 0 8 11 15 1 0 7 0 0 3 0 0 0 0 0 0 0 0 0 171 590 583 566 441 531 547
0 0 7 0 0 3 4 2 3 3 8 18 5 0 7 2 36 11 2 0 0 1 0 5 1 0 0 2 0 0 0 0 0 0 0 0 12 70 4 259 416 415 470 492 489
CIN
-0 -0 -0 -0 -0 -0 -0 -0 0 0 0 0 0 0 0 0 0 0 0 0 0 0 0 0 0 0 0 0 0 0 0 0 0 0 0 0 0 0 0 0 0 0 0 0 0
-0 -0 -0 0 -0 -0 0 -0 0 -0 -0 0 0 0 0 0 0 0 0 0 0 0 0 0 0 0 0 0 -147 -155 0 0 0 0 0 0 0 0 0 0 0 0 -11 0 0
-0 -0 -0 -0 -0 0 0 -0 0 0 -0 -0 0 0 0 0 0 0 0 0 0 0 0 0 0 0 0 0 0 0 0 0 0 0 0 0 0 0 0 0 0 0 0 0 0
-1 -0 -0 -0 0 0 -0 -0 0 -0 -0 0 0 0 0 0 0 0 0 0 0 0 0 0 0 0 0 0 0 0 0 0 0 0 0 0 0 0 0 0 0 0 0 0 0
-2 -2 -0 0 0 0 0 0 -0 0 0 0 0 -0 0 0 0 0 0 0 0 0 0 0 0 0 0 0 0 0 0 0 0 0 0 0 0 0 0 0 0 0 0 0 0
-0 -0 -0 0 0 0 0 0 0 0 0 0 -0 -0 -0 0 0 0 0 0 0 0 0 0 0 0 0 0 0 0 0 0 0 0 0 0 0 0 0 0 0 0 0 0 0
0 0 0 0 0 0 0 0 0 0 0 0 0 -0 0 0 0 0 0 0 0 0 0 0 0 0 0 0 0 0 0 0 0 0 0 0 0 0 0 0 0 0 0 0 0
-0 0 0 0 0 0 0 0 0 0 0 0 0 -0 0 0 0 0 0 0 0 0 0 0 0 0 0 0 0 0 0 0 0 0 0 0 0 0 0 0 0 0 0 0 0
-1 0 -0 0 0 0 0 0 0 0 0 0 -0 0 0 0 0 0 0 0 0 0 0 0 0 0 0 0 0 0 0 0 0 0 0 0 0 0 0 0 0 0 0 0 0
-0 0 0 0 0 0 0 0 0 0 0 0 0 -2 0 0 0 0 0 0 0 0 0 0 0 0 0 0 0 0 0 0 0 0 0 0 0 0 0 0 0 0 0 0 0
0 0 0 0 0 0 0 0 0 0 -22 -3 0 -10 0 0 0 0 0 0 0 0 0 0 0 0 0 0 0 0 0 0 0 0 0 0 0 0 0 0 0 0 0 0 0
0 0 0 0 0 0 0 0 -1 0 0 0 0 0 0 0 0 0 0 0 0 0 0 0 0 0 0 0 0 0 0 0 0 0 0 0 0 0 0 0 0 0 0 0 0
0 0 0 0 0 0 0 0 -1 0 0 0 0 0 0 0 0 0 0 0 0 0 0 0 0 0 0 0 0 0 0 0 0 0 0 0 0 0 0 0 0 0 0 0 0
0 0 0 0 0 0 0 0 -77 -22 0 0 -21 0 0 0 0 0 0 0 0 0 0 0 0 0 0 0 0 0 0 0 0 0 0 0 0 0 0 0 0 0 0 0 0
0 0 0 0 0 0 0 0 0 -34 -0 0 0 -49 0 -20 -2 0 0 0 0 0 0 0 0 0 0 0 0 0 0 0 0 0 0 0 0 0 0 0 0 0 0 0 0
0 0 0 0 0 0 0 0 0 0 0 -9 0 0 0 0 0 -8 0 -8 -5 0 0 0 0 0 0 0 0 0 0 0 0 0 0 0 0 0 0 0 0 0 0 0 0
0 0 0 0 0 0 0 0 0 0 -36 -10 -1 -5 -4 -39 -10 -2 0 -68 -8 -2 -0 -2 -9 0 0 0 0 0 0 0 0 0 0 0 0 0 0 0 0 0 0 -69 -175
0 0 0 0 0 0 0 0 0 -26 -21 0 0 -13 -7 0 0 -4 0 0 -1 -2 0 -1 -0 0 0 0 0 0 0 0 0 0 0 0 0 0 0 0 0 0 0 -113 -115
0 0 0 0 0 0 0 0 -2 -21 -9 -4 0 0 0 0 0 0 0 -60 -29 -21 -10 -8 -6 0 0 0 0 0 0 0 0 0 0 0 0 0 0 0 0 0 -8 -94 -115
0 0 0 0 0 0 0 0 -7 -35 -40 -3 -16 -3 0 0 -7 -13 -1 -26 -70 -97 -33 0 0 0 0 0 0 0 0 0 0 0 0 0 0 0 0 0 0 0 -105 -127 -154
0 0 0 0 0 0 0 0 -2 0 -38 -63 -6 -24 -18 -17 -23 -5 -16 -31 0 0 0 -27 -1 0 0 0 0 0 0 0 0 0 0 0 0 0 0 0 0 0 -86 -127 -165
0 -1 0 0 0 -3 0 0 -2 -29 -10 -12 -6 -53 -16 0 -2 0 -1 -14 0 0 0 0 -2 0 0 0 0 0 0 0 0 0 0 0 0 0 0 0 -7 -116 -112 -157 -210
0 -12 -15 -5 0 0 -5 0 -27 -22 -14 -7 -8 -11 0 0 -6 -26 -15 -45 0 0 -52 -22 -2 -0 0 0 -7 -4 0 0 0 0 0 0 0 0 -5 -38 -54 -106 -136 -166 -207
0 -1 0 0 -1 0 0 0 -1 -16 -4 -1 0 -2 0 0 -12 -6 -23 -28 0 0 -22 0 0 0 0 -3 0 -48 0 0 0 0 0 0 0 0 -10 -20 -60 -84 -128 -171 -228
-20 0 -1 0 0 0 -4 -6 -2 -7 -13 -16 -51 -6 -13 0 0 0 -28 -18 -19 -9 -0 0 -0 0 0 0 0 0 0 0 0 0 0 0 0 0 -16 -31 -64 -91 -120 -166 -197
-1 -2 -0 0 0 -2 -6 -14 -12 -19 -3 -13 -7 0 -25 -0 -11 0 -8 0 -11 -7 -17 0 -0 -11 -0 -1 -2 0 0 0 0 0 0 0 0 0 -14 -32 -45 -75 -93 -132 -165
0 0 -1 -0 -0 -2 -1 -1 -1 -2 -22 -10 -6 0 -33 -50 -2 -3 -5 0 0 -1 0 -3 -0 -0 -1 -23 0 0 0 0 0 0 0 0 -15 -32 -27 -32 -52 -50 -62 -96 -124
Wind_Speed
32 33 33 34 34 35 35 35 36 36 37 38 39 39 40 42 44 40 42 33 27 31 29 25 24 26 25 26 28 24 35 40 38 36 40 37 37 34 32 20 25 27 22 30 36
33 34 34 35 35 36 36 37 37 37 37 38 39 39 40 42 44 46 42 36 35 34 29 30 32 26 29 28 25 31 42 43 39 42 40 37 35 43 38 32 30 34 35 43 38
33 34 35 36 37 37 38 38 38 38 38 38 38 39 39 40 40 40 30 31 38 34 32 29 30 31 34 30 29 33 48 39 43 42 43 45 46 43 43 41 34 37 25 34 17
34 34 35 36 37 38 38 38 38 38 38 38 38 38 39 33 40 22 22 22 22 26 30 33 33 37 39 38 32 43 42 42 43 40 47 50 48 48 45 44 43 42 43 33 27
34 35 36 37 38 38 38 38 37 37 37 37 36 36 34 35 38 35 29 26 22 22 29 31 35 35 45 39 37 40 43 41 42 42 44 48 51 52 53 48 47 46 46 46 43
35 35 37 37 38 38 39 39 40 39 38 36 35 33 34 50 35 40 37 35 31 27 26 26 29 30 41 42 44 45 46 47 44 44 45 46 50 49 48 43 49 51 51 49 45
37 38 39 39 40 40 40 40 40 40 40 38 35 32 38 45 33 37 39 38 39 36 37 35 33 33 31 39 44 48 54 52 53 49 47 40 59 48 46 45 47 45 49 45 42
37 37 39 40 41 42 45 46 45 41 37 36 32 30 40 35 30 36 41 40 37 37 38 39 38 39 36 35 42 43 47 58 54 48 47 33 70 45 47 51 54 58 52 46 39
39 40 41 42 42 44 45 46 45 41 33 28 28 26 40 28 26 25 26 35 36 38 36 35 37 40 39 38 42 40 49 50 55 34 37 31 64 48 51 53 51 43 34 28 28
40 41 42 44 44 44 45 46 40 33 28 23 26 31 29 26 24 22 15 20 26 29 35 34 34 40 41 39 48 39 38 42 51 38 38 40 51 55 56 47 40 39 29 27 29
41 42 43 44 43 41 41 37 40 32 26 38 40 33 44 31 37 19 19 22 24 27 33 34 39 42 38 35 39 42 41 46 44 42 47 49 49 49 53 48 40 36 30 28 29
41 43 45 44 42 37 33 35 39 39 51 43 43 47 43 43 47 41 35 37 31 35 32 35 46 41 41 38 40 44 49 50 44 38 40 44 43 41 40 39 33 33 30 36 32
40 41 40 35 33 30 31 38 40 40 44 46 34 38 40 37 42 41 35 36 38 40 37 42 41 38 44 42 42 39 40 45 48 44 51 49 51 48 51 49 45 46 41 30 21
33 35 32 34 28 30 32 36 33 36 30 29 28 22 19 26 40 37 38 33 34 39 37 44 44 44 42 45 40 49 37 40 44 42 43 39 53 37 47 36 33 21 20 22 18
28 29 29 25 24 27 33 39 14 11 19 26 25 16 24 16 22 25 18 24 34 34 31 47 38 39 47 45 40 54 37 44 42 41 45 42 35 34 15 21 35 42 14 14 17
25 25 26 22 20 17 31 7 11 17 20 24 25 28 26 22 25 25 15 17 21 28 36 44 38 42 44 41 43 44 41 44 44 43 47 26 21 42 25 14 21 12 15 22 14
23 18 18 17 21 21 19 25 24 27 20 26 29 28 26 26 23 23 25 25 27 32 40 39 40 40 41 46 43 41 41 40 41 40 32 26 31 45 32 22 12 9 8 15 15
20 13 12 12 16 22 20 23 19 30 31 32 32 27 25 27 27 29 29 29 27 32 38 42 43 36 33 43 41 42 41 38 36 33 42 43 34 30 33 31 10 16 5 9 11
20 20 15 16 21 19 25 23 20 22 37 38 35 29 28 30 25 26 31 31 28 23 34 36 39 32 35 34 39 45 51 43 45 39 40 32 29 43 40 37 10 13 4 6 8
24 19 14 17 20 20 22 20 15 22 32 33 31 27 31 26 24 23 22 21 23 21 24 31 44 36 36 34 39 45 41 39 43 43 43 35 37 28 28 9 16 3 6 8 10
22 22 19 15 18 22 24 18 12 19 5 15 26 28 27 25 28 29 22 26 25 29 25 31 34 42 37 35 38 40 48 44 40 40 39 36 31 33 24 9 4 3 9 11 11
23 24 18 16 19 19 22 16 13 14 11 2 26 22 27 29 29 26 25 26 25 24 26 29 29 39 41 40 40 42 46 46 43 43 40 36 34 21 14 7 6 5 10 11 10
24 18 15 17 24 22 18 18 12 9 7 4 17 21 26 26 25 24 27 25 25 22 22 21 25 31 33 34 37 39 42 46 40 40 50 40 36 26 17 7 3 8 10 12 9
21 23 24 20 22 19 19 16 11 12 8 7 16 22 26 24 28 30 22 26 18 23 17 20 26 30 36 32 30 36 36 37 45 46 44 45 41 32 14 7 5 10 12 12 9
19 22 24 22 20 17 17 13 12 11 11 5 3 15 23 22 28 31 30 30 25 22 19 20 24 28 35 39 36 40 41 40 43 45 49 44 34 29 15 9 7 12 14 10 9
21 22 20 18 18 17 22 20 12 11 10 3 7 16 14 3 22 32 31 30 30 28 22 19 24 26 31 35 31 44 45 44 45 48 47 47 41 25 10 5 11 10 11 12 11
20 18 17 17 19 20 20 21 15 9 14 14 5 8 11 7 19 19 29 31 32 28 25 25 25 24 25 22 27 39 49 46 43 45 45 43 33 17 16 5 5 7 9 13 11
Wind_Direction
318 317 316 315 313 311 309 308 306 304 300 297 296 294 289 289 287 283 273 278 281 276 278 283 284 280 274 275 273 277 273 271 274 279 277 283 282 290 298 324 298 308 327 316 297
322 320 318 317 315 313 310 307 305 303 302 299 297 295 293 292 284 276 278 274 272 272 274 272 274 277 271 274 272 263 268 272 272 272 278 282 289 275 287 307 304 298 298 295 296
327 325 323 320 317 314 312 310 306 304 303 300 298 296 294 294 285 281 287 277 266 268 268 271 272 274 268 269 265 267 266 273 270 271 274 277 275 279 283 293 291 298 310 306 310
333 332 329 326 322 318 314 311 309 307 304 301 299 298 294 291 275 284 295 294 285 266 264 267 269 268 268 265 264 268 269 270 272 275 273 272 278 277 281 286 289 300 298 310 309
333 332 329 327 324 321 318 316 314 311 307 305 302 300 297 281 272 277 289 290 287 272 262 264 265 267 264 268 270 264 269 273 273 273 274 275 276 276 276 283 290 294 293 297 303
338 336 333 330 327 324 321 317 313 311 308 306 304 302 292 276 285 274 280 278 274 272 267 265 269 268 270 268 264 269 272 272 273 273 273 275 278 279 282 290 289 291 292 294 297
340 338 336 334 331 328 324 319 314 310 307 306 304 300 287 280 287 279 276 274 272 271 268 267 268 268 275 272 268 269 269 272 269 271 274 282 277 277 288 290 291 293 293 295 298
347 345 341 337 333 329 323 317 313 310 308 306 306 298 286 296 289 281 270 271 272 270 270 268 269 270 270 277 273 269 269 266 267 271 275 279 260 283 286 287 287 287 290 293 295
347 345 342 338 334 330 326 321 315 309 309 308 306 296 291 300 289 290 277 270 272 270 270 268 266 264 267 268 270 266 264 267 271 266 275 277 272 282 282 284 287 292 294 285 284
351 347 345 342 337 334 331 325 321 319 314 308 301 292 291 292 294 284 288 281 281 272 265 264 264 259 259 256 257 263 266 268 270 276 276 275 276 279 275 285 288 291 285 286 290
355 353 350 347 344 343 342 343 334 322 318 300 292 284 283 288 293 287 287 283 281 275 263 260 254 248 236 248 263 267 268 271 275 274 274 275 279 282 277 283 291 293 298 302 309
357 356 352 350 350 350 349 341 333 322 303 301 289 279 274 276 276 277 282 274 273 269 268 261 252 255 259 261 260 262 265 268 276 276 274 275 281 284 285 288 293 298 301 299 302
0 1 2 4 4 6 357 344 339 333 305 302 300 286 272 270 271 272 272 269 266 265 265 261 262 262 256 256 258 257 260 268 270 273 265 273 280 282 271 268 280 283 295 300 274
8 7 9 10 17 9 3 357 351 336 312 308 334 338 323 271 273 271 269 265 264 262 263 264 263 260 259 253 255 258 263 267 268 270 273 274 278 282 257 242 241 287 293 298 264
10 10 10 14 17 16 9 353 22 68 318 323 325 264 331 296 298 297 278 261 264 262 262 256 263 260 256 257 256 255 264 262 265 267 269 271 282 235 291 232 281 283 267 260 266
8 9 13 27 26 24 6 1 60 25 344 311 311 320 322 318 299 295 282 278 272 267 264 262 267 261 259 262 259 258 259 259 261 265 267 245 259 239 228 283 288 264 242 248 329
5 2 16 26 27 24 29 14 29 17 297 314 321 314 317 317 305 287 286 275 272 267 262 266 265 261 259 257 257 253 249 254 254 255 250 268 275 240 238 291 248 241 240 333 349
360 359 30 36 30 25 28 29 27 344 321 311 313 316 319 326 305 298 295 283 281 271 267 264 261 259 266 251 251 249 245 244 246 251 260 262 274 283 231 288 266 212 314 359 21
7 27 38 41 33 32 30 32 25 6 314 316 312 319 322 321 325 315 299 287 288 285 267 268 263 269 268 263 246 244 243 245 251 260 261 265 273 251 239 261 299 204 295 61 63
17 29 42 46 36 33 32 31 24 8 335 322 299 318 304 301 299 317 309 315 296 316 299 277 265 265 262 269 257 242 242 242 242 247 253 260 266 276 285 271 294 49 109 97 91
30 33 48 50 45 35 28 28 359 29 338 22 288 288 281 292 297 290 301 296 299 288 303 292 271 259 264 255 250 243 239 240 247 243 248 254 264 272 282 283 284 68 117 119 101
31 30 51 45 27 31 24 16 12 19 293 307 298 327 282 279 283 284 290 282 307 305 287 286 282 261 259 256 253 250 246 238 239 236 244 248 250 282 289 315 315 109 122 116 104
25 33 38 44 24 22 19 24 27 356 26 291 280 278 295 276 277 271 308 317 301 281 299 294 279 271 261 248 246 246 243 234 240 242 235 241 243 269 271 310 10 107 122 115 103
32 29 29 25 27 22 20 26 15 33 24 291 274 9 356 288 270 289 324 309 317 304 331 318 280 265 253 241 252 243 241 236 233 235 232 236 237 269 264 283 126 117 118 115 109
38 30 29 21 25 16 15 8 6 359 19 346 63 268 278 267 272 277 276 284 292 305 310 315 281 265 254 249 247 243 236 235 235 234 229 230 243 253 263 268 153 124 118 114 117
29 26 27 18 21 19 27 22 9 1 350 341 280 278 275 275 267 272 270 256 256 260 228 300 271 260 258 244 243 238 235 236 234 230 229 227 236 249 274 139 132 139 124 124 123
30 30 24 25 23 22 23 13 358 322 33 289 288 275 264 266 274 252 253 247 242 234 228 221 253 259 255 241 243 236 227 228 228 228 225 228 240 241 202 181 203 138 130 132 127